{"data":{"norad_id":68725,"epoch":"2026-09-20T02:48:58.009248Z","epoch_age_seconds":74405,"freshness":"FRESH","line1":"1 68725U 26081AC  26263.11733807  .00013477  00000+0  40932-3 0  9996","line2":"2 68725  53.1597 207.2389 0001151 104.3924 255.7206 15.34398121 24563","mean_motion":15.34398121,"eccentricity":0.0001151,"inclination_deg":53.1597,"raan_deg":207.2389,"arg_perigee_deg":104.3924,"mean_anomaly_deg":255.7206,"bstar":0.00040932,"rev_number":2456,"period_min":93.847873005835,"perigee_km":461.92144364233,"apogee_km":463.49620635124,"semimajor_km":6840.8458249968,"source":"CELESTRAK","updated_at":"2026-09-20T09:00:43.988304Z"}}